SQ5GN-1 Weather Reports


Display with metric or nautical units.
time (UTC)temp
F
wind
direction
speed
MPH
gust
MPH
rain 1hr
in
rain 24hr
in
rain mn
in
humidity
%
barometer
mb
20260507024611 61 0.0 0.0 0.00 0.00 0.00 100 1007.0
20260507022012 61 0.0 0.0 0.00 0.00 0.00 100 1007.0
20260507015422 62 0.0 0.0 0.00 0.00 0.00 100 1007.0
20260507013017 63 0.0 0.0 0.00 0.00 0.00 100 1007.0
20260507010244 63 0.0 0.0 0.00 0.00 0.00 100 1007.0
20260507003730 64 0.0 0.0 0.00 0.00 0.00 100 1007.0
20260507000957 65 0.0 0.0 0.00 0.00 0.00 94 1007.0
20260506234432 64 0.0 0.0 0.00 0.00 0.00 100 1007.0
20260506231617 64 0.0 0.0 0.00 0.00 0.00 100 1007.0
20260506225137 64 0.0 0.0 0.00 0.00 0.00 100 1007.0
20260506222352 65 0.0 0.0 0.00 0.00 0.00 100 1007.0
20260506215632 65 0.0 0.0 0.00 0.00 0.00 100 1007.0
20260506213037 64 0.0 0.0 0.00 0.00 0.00 100 1007.0
20260506210427 64 0.0 0.0 0.00 0.00 0.00 100 1007.0
20260506203957 65 0.0 0.0 0.00 0.00 0.00 100 1007.0
20260506201142 66 0.0 0.0 0.00 0.00 0.00 93 1007.0
20260506194455 67 0.0 0.0 0.00 0.00 0.00 88 1007.0
20260506192005 69 0.0 0.0 0.00 0.00 0.00 76 1007.0
20260506185201 70 0.0 0.0 0.00 0.00 0.00 70 1007.0
20260506182504 72 0.0 0.0 0.00 0.00 0.00 62 1006.0
20260506175850 73 0.0 0.0 0.00 0.00 0.00 59 1006.0
20260506173332 74 0.0 0.0 0.00 0.00 0.00 56 1006.0
20260506170837 74 0.0 0.0 0.00 0.00 0.00 51 1006.0
20260506163902 76 0.0 0.0 0.00 0.00 0.00 49 1006.0
20260506161001 77 0.0 0.0 0.00 0.00 0.00 47 1006.0
20260506154212 78 0.0 0.0 0.00 0.00 0.00 46 1006.0
20260506151422 78 0.0 0.0 0.00 0.00 0.00 43 1006.0
20260506144657 79 0.0 0.0 0.00 0.00 0.00 40 1006.0
20260506142017 79 0.0 0.0 0.00 0.00 0.00 41 1006.0
20260506135139 79 0.0 0.0 0.00 0.00 0.00 42 1006.0
20260506132327 78 0.0 0.0 0.00 0.00 0.00 44 1006.0
20260506125402 80 0.0 0.0 0.00 0.00 0.00 45 1006.0
20260506122752 78 0.0 0.0 0.00 0.00 0.00 45 1006.0
20260506120042 79 0.0 0.0 0.00 0.00 0.00 42 1006.0
20260506113332 80 0.0 0.0 0.00 0.00 0.00 41 1006.0
20260506110904 80 0.0 0.0 0.00 0.00 0.00 41 1006.0
20260506104147 79 0.0 0.0 0.00 0.00 0.00 43 1006.0
20260506101427 77 0.0 0.0 0.00 0.00 0.00 43 1006.0
20260506094607 78 0.0 0.0 0.00 0.00 0.00 40 1006.0
20260506092137 77 0.0 0.0 0.00 0.00 0.00 41 1006.0
20260506085257 76 0.0 0.0 0.00 0.00 0.00 41 1006.0
20260506082315 75 0.0 0.0 0.00 0.00 0.00 43 1006.0
20260506073057 72 0.0 0.0 0.00 0.00 0.00 56 1006.0
20260506070512 69 0.0 0.0 0.00 0.00 0.00 74 1006.0
20260506061527 64 0.0 0.0 0.00 0.00 0.00 100 1007.0
20260506042901 58 0.0 0.0 0.00 0.00 0.00 100 1007.0
20260506040057 55 0.0 0.0 0.00 0.00 0.00 100 1007.0
20260506033234 55 0.0 0.0 0.00 0.00 0.00 100 1007.0
20260506030452 55 0.0 0.0 0.00 0.00 0.00 100 1007.0